DLH650 EDDF-UAAA

Flight info

Callsign DLH650
Flight time N/A
Altitude 31000
Route CINDY5L CINDY Z74 HAREM DCT ASLEP DCT TAKUT L603 BESNI/N0470F370 L605 MIQ DCT ALUTU DCT BIBAG Q104 AKIMA DCT ARSIN DCT GAZDA DCT TEGRI DCT DINRO N743 UDROS DCT CRM DCT ROLIN/N0472F390 DCT TAGAR DCT BT DCT BARAD M747 LUSAL N199 RASAM L88 METKA B476 TIMGA A480 OTBOR/K0854F390 N147 ELAHA Z621 ARBOL M610 TIPSA
Aircraft A343/H-SDE2E3FGHIJ4J5M1RWXY/LB1D1

Departure

Time N/A
Airport Frankfurt Main Airport (EDDF)

Arrival

Time 2026-05-08 00:01
Airport Almaty International Airport (UAAA)
Time Latitude Longitude Altitude Speed Heading
2026-05-07 20:54 42.09645 43.62897 39200 ft 483 kts 118°
2026-05-07 20:54 42.06203 43.70614 39215 ft 480 kts 125°
2026-05-07 20:55 42.02500 43.78091 39213 ft 480 kts 126°
2026-05-07 20:55 41.98744 43.85528 39215 ft 481 kts 127°
2026-05-07 20:56 41.94990 43.92963 39214 ft 480 kts 127°
2026-05-07 20:56 41.91244 44.00394 39209 ft 481 kts 127°
2026-05-07 20:57 41.87495 44.07825 39213 ft 480 kts 127°
2026-05-07 20:57 41.83769 44.15191 39214 ft 481 kts 127°
2026-05-07 20:58 41.80012 44.22598 39199 ft 480 kts 127°
2026-05-07 20:58 41.76254 44.29987 39210 ft 480 kts 128°
2026-05-07 20:59 41.72485 44.37383 39207 ft 480 kts 128°
2026-05-07 20:59 41.68711 44.44772 39206 ft 481 kts 128°
2026-05-07 21:00 41.64935 44.52147 39204 ft 481 kts 128°
2026-05-07 21:00 41.61150 44.59520 39197 ft 481 kts 128°
2026-05-07 21:01 41.57360 44.66885 39191 ft 481 kts 128°
2026-05-07 21:01 41.53566 44.74239 39189 ft 481 kts 128°
2026-05-07 21:02 41.49767 44.81586 39186 ft 481 kts 128°
2026-05-07 21:02 41.45965 44.88922 39190 ft 481 kts 128°
2026-05-07 21:03 41.42156 44.96253 39185 ft 481 kts 129°
2026-05-07 21:03 41.38367 45.03527 39181 ft 481 kts 129°
2026-05-07 21:04 41.35157 45.11397 39185 ft 489 kts 115°
2026-05-07 21:04 41.32819 45.19918 39165 ft 491 kts 113°
2026-05-07 21:05 41.30629 45.28554 39173 ft 493 kts 113°
2026-05-07 21:05 41.28438 45.37205 39172 ft 494 kts 113°
2026-05-07 21:06 41.26219 45.45841 39162 ft 494 kts 114°
2026-05-07 21:06 41.23978 45.54480 39156 ft 495 kts 114°
2026-05-07 21:07 41.22104 45.61666 39158 ft 496 kts 114°
2026-05-07 21:07 41.19842 45.70327 39159 ft 496 kts 114°
2026-05-07 21:08 41.17563 45.78981 39158 ft 496 kts 114°
2026-05-07 21:08 41.15275 45.87623 39153 ft 497 kts 115°
2026-05-07 21:09 41.12973 45.96293 39154 ft 498 kts 115°
2026-05-07 21:09 41.10666 46.04965 39157 ft 498 kts 115°
2026-05-07 21:10 41.08354 46.13624 39142 ft 498 kts 115°
2026-05-07 21:10 41.06050 46.22226 39158 ft 499 kts 115°
2026-05-07 21:11 41.03720 46.30893 39156 ft 499 kts 115°
2026-05-07 21:11 41.00244 46.43902 39136 ft 500 kts 115°
2026-05-07 21:12 40.97926 46.52565 39162 ft 499 kts 115°
2026-05-07 21:12 40.95601 46.61208 39150 ft 498 kts 115°
2026-05-07 21:13 40.93268 46.69844 39153 ft 498 kts 115°
2026-05-07 21:13 40.90929 46.78473 39152 ft 499 kts 115°
2026-05-07 21:14 40.88581 46.87113 39149 ft 500 kts 115°
2026-05-07 21:14 40.86213 46.95751 39154 ft 500 kts 115°
2026-05-07 21:15 40.83835 47.04382 39131 ft 500 kts 116°
2026-05-07 21:15 40.81449 47.13018 39149 ft 502 kts 116°
2026-05-07 21:16 40.79051 47.21677 39146 ft 502 kts 116°
2026-05-07 21:16 40.76647 47.30260 39133 ft 502 kts 116°
2026-05-07 21:17 40.74221 47.38890 39133 ft 502 kts 116°
2026-05-07 21:17 40.71794 47.47534 39136 ft 503 kts 116°
2026-05-07 21:18 40.69359 47.56183 39139 ft 503 kts 116°
2026-05-07 21:18 40.66919 47.64824 39141 ft 503 kts 116°
2026-05-07 21:19 40.64472 47.73461 39149 ft 503 kts 116°
2026-05-07 21:19 40.62019 47.82090 39149 ft 503 kts 116°
2026-05-07 21:20 40.59596 47.90743 39146 ft 506 kts 112°
2026-05-07 21:20 40.58529 47.99981 39152 ft 518 kts 95°
2026-05-07 21:21 40.58636 48.09505 39149 ft 523 kts 92°
2026-05-07 21:21 40.58947 48.19071 39153 ft 524 kts 91°
2026-05-07 21:22 40.59250 48.28641 39154 ft 523 kts 92°
2026-05-07 21:22 40.59510 48.38212 39158 ft 523 kts 92°
2026-05-07 21:23 40.59745 48.47778 39139 ft 523 kts 92°
2026-05-07 21:23 40.59969 48.57286 39163 ft 523 kts 92°
2026-05-07 21:24 40.60189 48.66859 39159 ft 523 kts 92°
2026-05-07 21:24 40.60402 48.76430 39163 ft 523 kts 92°
2026-05-07 21:25 40.60605 48.85999 39156 ft 523 kts 92°
2026-05-07 21:25 40.60800 48.95500 39159 ft 523 kts 92°
2026-05-07 21:26 40.60989 49.05135 39142 ft 523 kts 92°
2026-05-07 21:26 40.61170 49.14711 39138 ft 524 kts 93°
2026-05-07 21:27 40.61402 49.24302 39124 ft 525 kts 90°
2026-05-07 21:27 40.61977 49.33898 39116 ft 526 kts 89°
2026-05-07 21:28 40.62612 49.43494 39111 ft 526 kts 89°
2026-05-07 21:28 40.63192 49.53094 39107 ft 526 kts 89°
2026-05-07 21:29 40.63730 49.62703 39105 ft 527 kts 90°
2026-05-07 21:29 40.64253 49.72344 39107 ft 528 kts 90°
2026-05-07 21:30 40.64771 49.81981 39104 ft 528 kts 90°
2026-05-07 21:30 40.65282 49.91628 39103 ft 528 kts 90°
2026-05-07 21:31 40.65782 50.01209 39103 ft 528 kts 90°
2026-05-07 21:31 40.66277 50.10851 39097 ft 528 kts 90°
2026-05-07 21:32 40.66765 50.20518 39102 ft 530 kts 90°
2026-05-07 21:32 40.67246 50.30209 39102 ft 530 kts 90°
2026-05-07 21:33 40.67719 50.39900 39102 ft 530 kts 90°
2026-05-07 21:33 40.68188 50.49590 39105 ft 530 kts 90°
2026-05-07 21:34 40.68643 50.59284 39110 ft 530 kts 90°
2026-05-07 21:34 40.69089 50.68985 39110 ft 530 kts 90°
2026-05-07 21:35 40.69524 50.78615 39106 ft 531 kts 91°
2026-05-07 21:35 40.69956 50.88326 39116 ft 531 kts 91°
2026-05-07 21:36 40.70380 50.98039 39113 ft 531 kts 91°
2026-05-07 21:36 40.70796 51.07760 39119 ft 531 kts 91°
2026-05-07 21:37 40.71204 51.17482 39119 ft 531 kts 91°
2026-05-07 21:37 40.71604 51.27205 39118 ft 531 kts 91°
2026-05-07 21:38 40.71996 51.36930 39119 ft 533 kts 91°
2026-05-07 21:38 40.72385 51.46690 39111 ft 534 kts 91°
2026-05-07 21:39 40.73574 51.56402 39121 ft 538 kts 82°
2026-05-07 21:39 40.75131 51.66062 39108 ft 539 kts 81°
2026-05-07 21:40 40.76744 51.75713 39121 ft 538 kts 81°
2026-05-07 21:40 40.78339 51.85365 39107 ft 538 kts 81°
2026-05-07 21:41 40.79913 51.95029 39116 ft 538 kts 81°
2026-05-07 21:41 40.81473 52.04696 39110 ft 539 kts 81°
2026-05-07 21:42 40.83025 52.14379 39105 ft 540 kts 81°
2026-05-07 21:42 40.84567 52.24046 39109 ft 542 kts 81°
2026-05-07 21:43 40.86115 52.33797 39112 ft 542 kts 81°
2026-05-07 21:43 40.87654 52.43546 39112 ft 542 kts 81°
2026-05-07 21:44 40.89183 52.53291 39108 ft 542 kts 81°
2026-05-07 21:44 40.90382 52.63088 39110 ft 537 kts 89°
2026-05-07 21:45 40.90917 52.72931 39105 ft 537 kts 91°
2026-05-07 21:45 40.91327 52.82781 39105 ft 537 kts 91°
2026-05-07 21:46 40.91719 52.92633 39102 ft 538 kts 91°
2026-05-07 21:46 40.92117 53.02526 39107 ft 539 kts 91°
2026-05-07 21:47 40.92515 53.12432 39102 ft 540 kts 91°
2026-05-07 21:47 40.92906 53.22346 39105 ft 540 kts 91°
2026-05-07 21:48 40.93274 53.32261 39105 ft 540 kts 91°
2026-05-07 21:48 40.93634 53.42174 39102 ft 540 kts 91°
2026-05-07 21:49 40.93987 53.52090 39102 ft 540 kts 91°
2026-05-07 21:49 40.94333 53.62008 39096 ft 540 kts 91°
2026-05-07 21:50 40.94672 53.71935 39098 ft 540 kts 91°
2026-05-07 21:50 40.95001 53.81860 39102 ft 540 kts 91°
2026-05-07 21:51 40.95322 53.91787 39099 ft 541 kts 91°
2026-05-07 21:51 40.95635 54.01727 39095 ft 540 kts 91°
2026-05-07 21:52 40.95939 54.11659 39080 ft 540 kts 91°
2026-05-07 21:52 40.96233 54.21536 39090 ft 541 kts 92°
2026-05-07 21:53 40.96521 54.31486 39094 ft 541 kts 92°
2026-05-07 21:53 40.96799 54.41427 39099 ft 541 kts 92°
2026-05-07 21:54 40.97070 54.51376 39087 ft 541 kts 92°
2026-05-07 21:54 40.97288 54.59650 39091 ft 541 kts 92°
2026-05-07 21:55 40.97543 54.69602 39091 ft 541 kts 92°
2026-05-07 21:55 40.97789 54.79561 39095 ft 542 kts 92°
2026-05-07 21:56 40.98027 54.89518 39097 ft 542 kts 92°
2026-05-07 21:56 40.98251 54.99482 39097 ft 541 kts 92°
2026-05-07 21:57 40.98458 55.09445 39094 ft 541 kts 92°
2026-05-07 21:57 40.98659 55.19404 39095 ft 542 kts 92°
2026-05-07 21:58 40.98853 55.29371 39091 ft 541 kts 92°
2026-05-07 21:58 40.99038 55.39334 39084 ft 542 kts 92°
2026-05-07 21:59 40.99215 55.49304 39089 ft 542 kts 92°
2026-05-07 21:59 40.99382 55.59208 39085 ft 542 kts 92°
2026-05-07 22:00 40.99542 55.69193 39088 ft 542 kts 92°
2026-05-07 22:00 40.99694 55.79169 39083 ft 542 kts 92°
2026-05-07 22:01 40.99852 55.89150 39075 ft 542 kts 92°
2026-05-07 22:01 41.00011 55.99136 39066 ft 542 kts 92°
2026-05-07 22:02 41.00160 56.09125 39071 ft 543 kts 92°
2026-05-07 22:02 41.00299 56.19122 39071 ft 543 kts 92°
2026-05-07 22:03 41.00428 56.29126 39074 ft 543 kts 92°
2026-05-07 22:03 41.00548 56.39070 39070 ft 544 kts 92°
2026-05-07 22:04 41.00697 56.49074 39062 ft 545 kts 89°
2026-05-07 22:04 41.01654 56.59058 39062 ft 547 kts 83°
2026-05-07 22:05 41.02829 56.69001 39058 ft 546 kts 83°
2026-05-07 22:05 41.04033 56.78930 39061 ft 545 kts 83°
2026-05-07 22:06 41.05216 56.88854 39061 ft 545 kts 83°
2026-05-07 22:06 41.06379 56.98780 39055 ft 544 kts 83°
2026-05-07 22:07 41.07527 57.08687 39056 ft 544 kts 83°
2026-05-07 22:07 41.08666 57.18596 39056 ft 544 kts 83°
2026-05-07 22:08 41.09797 57.28507 39056 ft 544 kts 83°
2026-05-07 22:08 41.10920 57.38418 39051 ft 543 kts 83°
2026-05-07 22:09 41.12032 57.48316 39053 ft 543 kts 83°
2026-05-07 22:09 41.13136 57.58224 39052 ft 543 kts 83°
2026-05-07 22:10 41.14232 57.68129 39048 ft 542 kts 83°
2026-05-07 22:10 41.15311 57.77968 39048 ft 542 kts 83°
2026-05-07 22:11 41.16387 57.87862 39048 ft 542 kts 83°
2026-05-07 22:11 41.17457 57.97769 39045 ft 542 kts 83°
2026-05-07 22:12 41.18516 58.07671 39045 ft 542 kts 83°
2026-05-07 22:12 41.19570 58.17574 39044 ft 542 kts 83°
2026-05-07 22:13 41.20613 58.27487 39044 ft 542 kts 84°
2026-05-07 22:13 41.21647 58.37397 39041 ft 541 kts 84°
2026-05-07 22:14 41.22673 58.47300 39042 ft 541 kts 84°
2026-05-07 22:14 41.23690 58.57206 39022 ft 541 kts 84°
2026-05-07 22:15 41.24699 58.67124 39040 ft 541 kts 83°
2026-05-07 22:15 41.25699 58.77032 39040 ft 541 kts 84°
2026-05-07 22:16 41.26690 58.86941 39035 ft 540 kts 84°
2026-05-07 22:16 41.27671 58.96844 39028 ft 540 kts 84°
2026-05-07 22:17 41.28638 59.06685 39026 ft 540 kts 84°
2026-05-07 22:17 41.29602 59.16580 39026 ft 539 kts 84°
2026-05-07 22:18 41.31030 59.31420 39028 ft 539 kts 84°
2026-05-07 22:19 41.31971 59.41312 39031 ft 539 kts 84°
2026-05-07 22:19 41.32903 59.51200 39024 ft 538 kts 84°
2026-05-07 22:20 41.33826 59.61080 39023 ft 538 kts 84°
2026-05-07 22:20 41.35385 59.70805 39018 ft 538 kts 73°
2026-05-07 22:21 41.37610 59.80318 39026 ft 538 kts 71°
2026-05-07 22:21 41.39937 59.89791 39024 ft 538 kts 71°
2026-05-07 22:22 41.42259 59.99275 39014 ft 538 kts 71°
2026-05-07 22:22 41.44554 60.08760 39018 ft 538 kts 71°
2026-05-07 22:23 41.46818 60.18189 39018 ft 537 kts 71°
2026-05-07 22:23 41.49081 60.27689 39016 ft 537 kts 72°
2026-05-07 22:24 41.51311 60.37205 39019 ft 537 kts 72°
2026-05-07 22:24 41.53533 60.46722 39017 ft 537 kts 72°
2026-05-07 22:25 41.55750 60.56240 39021 ft 537 kts 72°
2026-05-07 22:25 41.57961 60.65762 39018 ft 536 kts 72°
2026-05-07 22:26 41.60329 60.75204 39020 ft 535 kts 69°
2026-05-07 22:26 41.62856 60.84568 39017 ft 535 kts 69°
2026-05-07 22:27 41.65360 60.93941 39006 ft 535 kts 69°
2026-05-07 22:27 41.67820 61.03325 39006 ft 534 kts 70°
2026-05-07 22:28 41.70257 61.12718 39008 ft 534 kts 70°
2026-05-07 22:28 41.72685 61.22121 39005 ft 534 kts 70°
2026-05-07 22:29 41.75090 61.31465 39001 ft 534 kts 70°
2026-05-07 22:29 41.77504 61.40878 39002 ft 534 kts 70°
2026-05-07 22:30 41.79911 61.50298 39004 ft 534 kts 70°
2026-05-07 22:30 41.82311 61.59729 39001 ft 535 kts 70°
2026-05-07 22:31 41.84708 61.69183 39000 ft 535 kts 70°
2026-05-07 22:31 41.87099 61.78646 38996 ft 535 kts 70°
2026-05-07 22:32 41.89475 61.88117 38994 ft 534 kts 70°
2026-05-07 22:32 41.91831 61.97573 38994 ft 534 kts 70°
2026-05-07 22:33 41.94179 62.07023 38993 ft 534 kts 70°
2026-05-07 22:33 41.96529 62.16482 38984 ft 533 kts 70°
2026-05-07 22:34 41.98860 62.25911 38986 ft 531 kts 70°
2026-05-07 22:34 42.01177 62.35325 38990 ft 530 kts 71°
2026-05-07 22:35 42.03471 62.44678 38975 ft 530 kts 71°
2026-05-07 22:35 42.05769 62.54082 38980 ft 528 kts 71°
2026-05-07 22:36 42.08052 62.63466 38976 ft 527 kts 71°
2026-05-07 22:36 42.10325 62.72845 38975 ft 527 kts 71°
2026-05-07 22:37 42.12588 62.82236 38977 ft 526 kts 71°
2026-05-07 22:37 42.14838 62.91602 38962 ft 525 kts 71°
2026-05-07 22:38 42.17082 63.00967 38969 ft 525 kts 71°
2026-05-07 22:38 42.19305 63.10269 38968 ft 524 kts 71°
2026-05-07 22:39 42.21544 63.19671 38964 ft 522 kts 71°
2026-05-07 22:39 42.23741 63.28934 38962 ft 522 kts 71°
2026-05-07 22:40 42.25944 63.38268 38956 ft 522 kts 71°
2026-05-07 22:40 42.28134 63.47584 38961 ft 519 kts 71°
2026-05-07 22:41 42.30308 63.56871 38959 ft 518 kts 71°
2026-05-07 22:41 42.32476 63.66167 38958 ft 519 kts 71°
2026-05-07 22:42 42.34634 63.75463 38957 ft 518 kts 71°
2026-05-07 22:42 42.36779 63.84742 38956 ft 517 kts 72°
2026-05-07 22:43 42.38917 63.94024 38955 ft 517 kts 72°
2026-05-07 22:43 42.41046 64.03308 38959 ft 517 kts 72°
2026-05-07 22:44 42.42790 64.11035 38958 ft 516 kts 72°
2026-05-07 22:44 42.44867 64.20338 38958 ft 516 kts 72°
2026-05-07 22:45 42.46944 64.29646 38955 ft 516 kts 72°
2026-05-07 22:45 42.49038 64.38947 38956 ft 516 kts 72°
2026-05-07 22:46 42.51127 64.48252 38956 ft 516 kts 72°
2026-05-07 22:46 42.53204 64.57563 38955 ft 516 kts 72°
2026-05-07 22:47 42.55261 64.66830 38948 ft 515 kts 72°
2026-05-07 22:47 42.57314 64.76124 38950 ft 513 kts 73°
2026-05-07 22:48 42.59355 64.85402 38949 ft 513 kts 73°
2026-05-07 22:48 42.61388 64.94687 38947 ft 513 kts 73°
2026-05-07 22:49 42.63412 65.03963 38947 ft 511 kts 73°
2026-05-07 22:49 42.65418 65.13203 38948 ft 510 kts 73°
2026-05-07 22:50 42.67416 65.22445 38938 ft 510 kts 73°
2026-05-07 22:50 42.69407 65.31694 38940 ft 510 kts 73°
2026-05-07 22:51 42.71389 65.40943 38935 ft 509 kts 73°
2026-05-07 22:51 42.73361 65.50184 38933 ft 509 kts 73°
2026-05-07 22:52 42.75316 65.59385 38931 ft 509 kts 73°
2026-05-07 22:52 42.77277 65.68656 38921 ft 510 kts 74°
2026-05-07 22:53 42.79230 65.77930 38929 ft 510 kts 74°
2026-05-07 22:53 42.81174 65.87218 38922 ft 510 kts 74°
2026-05-07 22:54 42.83114 65.96507 38917 ft 510 kts 74°
2026-05-07 22:54 42.85045 66.05799 38906 ft 509 kts 74°
2026-05-07 22:55 42.86965 66.15099 38916 ft 509 kts 75°
2026-05-07 22:55 42.88861 66.24405 38911 ft 509 kts 75°
2026-05-07 22:56 42.90734 66.33658 38898 ft 510 kts 75°
2026-05-07 22:56 42.92618 66.42990 38911 ft 510 kts 75°
2026-05-07 22:57 42.94494 66.52321 38895 ft 510 kts 75°
2026-05-07 22:57 42.96365 66.61662 38898 ft 511 kts 74°
2026-05-07 22:58 42.98263 66.71040 38894 ft 514 kts 74°
2026-05-07 22:58 43.00171 66.80447 38903 ft 514 kts 74°
2026-05-07 22:59 43.02048 66.89878 38897 ft 514 kts 75°
2026-05-07 22:59 43.03903 66.99316 38893 ft 515 kts 74°
2026-05-07 23:00 43.05756 67.08775 38903 ft 515 kts 75°
2026-05-07 23:00 43.07603 67.18229 38890 ft 515 kts 75°
2026-05-07 23:01 43.09445 67.27701 38888 ft 515 kts 75°
2026-05-07 23:01 43.11278 67.37172 38888 ft 515 kts 75°
2026-05-07 23:02 43.13102 67.46642 38892 ft 514 kts 75°
2026-05-07 23:02 43.14921 67.56120 38900 ft 514 kts 75°
2026-05-07 23:03 43.16730 67.65596 38911 ft 514 kts 75°
2026-05-07 23:03 43.18521 67.75018 38909 ft 514 kts 75°
2026-05-07 23:04 43.20312 67.84503 38910 ft 514 kts 75°
2026-05-07 23:04 43.22097 67.94002 38916 ft 514 kts 75°
2026-05-07 23:05 43.23877 68.03510 38918 ft 515 kts 75°
2026-05-07 23:05 43.25650 68.13038 38934 ft 515 kts 75°
2026-05-07 23:06 43.27414 68.22561 38945 ft 515 kts 75°
2026-05-07 23:06 43.29168 68.32085 38947 ft 513 kts 75°
2026-05-07 23:07 43.30824 68.41601 38960 ft 512 kts 78°
2026-05-07 23:07 43.31956 68.51261 38941 ft 512 kts 81°
2026-05-07 23:08 43.32964 68.60910 38933 ft 510 kts 82°
2026-05-07 23:08 43.33770 68.70554 38940 ft 506 kts 84°
2026-05-07 23:09 43.34509 68.80139 38950 ft 504 kts 83°
2026-05-07 23:09 43.35286 68.89711 38959 ft 505 kts 83°
2026-05-07 23:10 43.36086 68.99290 38963 ft 504 kts 83°
2026-05-07 23:10 43.36883 69.08849 38974 ft 503 kts 83°
2026-05-07 23:11 43.37666 69.18332 38972 ft 502 kts 83°
2026-05-07 23:11 43.38485 69.27872 38968 ft 503 kts 82°
2026-05-07 23:12 43.39318 69.37416 38973 ft 503 kts 82°
2026-05-07 23:12 43.40141 69.46975 38972 ft 502 kts 82°
2026-05-07 23:13 43.40951 69.56526 38974 ft 503 kts 82°
2026-05-07 23:13 43.41750 69.66074 38976 ft 502 kts 83°
2026-05-07 23:14 43.42536 69.75562 38977 ft 502 kts 83°
2026-05-07 23:14 43.43345 69.85096 38966 ft 502 kts 82°
2026-05-07 23:15 43.44163 69.94633 38981 ft 502 kts 82°
2026-05-07 23:15 43.44971 70.04167 38980 ft 502 kts 82°
2026-05-07 23:16 43.45767 70.13697 38976 ft 500 kts 83°
2026-05-07 23:16 43.46549 70.23182 38973 ft 498 kts 83°
2026-05-07 23:17 43.47323 70.32653 38973 ft 498 kts 83°
2026-05-07 23:17 43.48091 70.42142 38967 ft 498 kts 83°
2026-05-07 23:18 43.48849 70.51612 38969 ft 497 kts 83°
2026-05-07 23:18 43.49598 70.61076 38970 ft 497 kts 83°
2026-05-07 23:19 43.50339 70.70534 38965 ft 497 kts 83°
2026-05-07 23:19 43.51067 70.79932 38970 ft 497 kts 83°
2026-05-07 23:20 43.51792 70.89389 38972 ft 496 kts 83°
2026-05-07 23:20 43.52500 70.98847 38970 ft 496 kts 83°
2026-05-07 23:21 43.53194 71.08296 38972 ft 496 kts 84°
2026-05-07 23:21 43.53884 71.17760 38974 ft 496 kts 84°
2026-05-07 23:22 43.54566 71.27214 38964 ft 496 kts 84°
2026-05-07 23:22 43.55241 71.36679 38972 ft 496 kts 84°
2026-05-07 23:23 43.55908 71.46143 38974 ft 496 kts 84°
2026-05-07 23:23 43.56568 71.55611 38970 ft 496 kts 84°
2026-05-07 23:24 43.57218 71.65069 38967 ft 496 kts 84°
2026-05-07 23:24 43.57862 71.74533 38970 ft 496 kts 84°
2026-05-07 23:25 43.58501 71.84057 38975 ft 500 kts 84°
2026-05-07 23:25 43.59135 71.93614 38967 ft 501 kts 84°
2026-05-07 23:26 43.59761 72.03187 38970 ft 501 kts 84°
2026-05-07 23:26 43.60380 72.12766 38969 ft 501 kts 84°
2026-05-07 23:27 43.61288 72.27066 38977 ft 501 kts 84°
2026-05-07 23:27 43.61887 72.36648 38973 ft 501 kts 84°
2026-05-07 23:28 43.62477 72.46219 38969 ft 501 kts 84°
2026-05-07 23:28 43.63059 72.55794 38960 ft 501 kts 85°
2026-05-07 23:29 43.63632 72.65366 38967 ft 500 kts 85°
2026-05-07 23:29 43.64197 72.74927 38966 ft 500 kts 85°
2026-05-07 23:30 43.64754 72.84489 38964 ft 499 kts 85°
2026-05-07 23:30 43.65303 72.94053 38964 ft 500 kts 85°
2026-05-07 23:31 43.65844 73.03617 38966 ft 498 kts 85°
2026-05-07 23:31 43.66376 73.13154 38972 ft 498 kts 85°
2026-05-07 23:32 43.66899 73.22685 38969 ft 498 kts 85°
2026-05-07 23:32 43.67328 73.30619 38975 ft 498 kts 85°
2026-05-07 23:33 43.67836 73.40152 38974 ft 497 kts 85°
2026-05-07 23:33 43.68336 73.49671 38975 ft 497 kts 85°
2026-05-07 23:34 43.68828 73.59201 38976 ft 497 kts 85°
2026-05-07 23:34 43.69312 73.68726 38973 ft 497 kts 85°
2026-05-07 23:35 43.69497 73.78265 38971 ft 496 kts 91°
2026-05-07 23:35 43.69287 73.87799 38988 ft 497 kts 92°
2026-05-07 23:36 43.69004 73.97339 38989 ft 497 kts 92°
2026-05-07 23:36 43.68712 74.06814 38998 ft 496 kts 92°
2026-05-07 23:37 43.68420 74.16331 39000 ft 496 kts 92°
2026-05-07 23:37 43.68128 74.25854 39008 ft 496 kts 92°
2026-05-07 23:38 43.67839 74.35373 39011 ft 496 kts 92°
2026-05-07 23:38 43.67542 74.44892 39016 ft 495 kts 92°
2026-05-07 23:39 43.67236 74.54394 39024 ft 495 kts 92°
2026-05-07 23:39 43.66922 74.63890 39036 ft 495 kts 92°
2026-05-07 23:40 43.66600 74.73387 39031 ft 495 kts 92°
2026-05-07 23:40 43.66270 74.82889 39037 ft 495 kts 92°
2026-05-07 23:41 43.65932 74.92387 39036 ft 495 kts 92°
2026-05-07 23:41 43.65586 75.01894 39038 ft 495 kts 92°
2026-05-07 23:42 43.65232 75.11394 39039 ft 495 kts 92°
2026-05-07 23:42 43.64870 75.20898 39014 ft 495 kts 92°
2026-05-07 23:43 43.64687 75.25634 38546 ft 494 kts 92°
2026-05-07 23:43 43.64502 75.30379 37794 ft 496 kts 92°
2026-05-07 23:43 43.64313 75.35146 37110 ft 498 kts 92°
2026-05-07 23:43 43.64123 75.39921 36459 ft 499 kts 92°
2026-05-07 23:44 43.63929 75.44711 35831 ft 499 kts 92°
2026-05-07 23:44 43.63737 75.49429 35233 ft 499 kts 92°
2026-05-07 23:44 43.63540 75.54221 34615 ft 499 kts 92°
2026-05-07 23:44 43.63331 75.59003 33988 ft 499 kts 92°
2026-05-07 23:45 43.63109 75.63787 33250 ft 500 kts 92°
2026-05-07 23:45 43.62885 75.68580 32479 ft 501 kts 92°
2026-05-07 23:45 43.62661 75.73387 31685 ft 503 kts 92°
2026-05-07 23:45 43.62434 75.78208 30886 ft 504 kts 92°
2026-05-07 23:46 43.62205 75.83051 30096 ft 506 kts 92°
2026-05-07 23:46 43.61974 75.87901 29205 ft 507 kts 92°
2026-05-07 23:46 43.61741 75.92750 28404 ft 506 kts 93°
2026-05-07 23:46 43.61506 75.97586 27664 ft 504 kts 93°
2026-05-07 23:47 43.61271 76.02390 26990 ft 501 kts 93°
2026-05-07 23:47 43.61036 76.07157 26260 ft 493 kts 93°
2026-05-07 23:47 43.60805 76.11795 24984 ft 477 kts 93°
2026-05-07 23:47 43.60579 76.16322 23348 ft 469 kts 93°
2026-05-07 23:48 43.60355 76.20770 21564 ft 461 kts 94°
2026-05-07 23:48 43.60132 76.25136 19920 ft 451 kts 94°
2026-05-07 23:48 43.59912 76.29432 18549 ft 443 kts 94°
2026-05-07 23:48 43.59696 76.33612 16899 ft 432 kts 94°
2026-05-07 23:49 43.59483 76.37702 15556 ft 419 kts 94°
2026-05-07 23:49 43.59278 76.41613 15147 ft 404 kts 94°
2026-05-07 23:49 43.59076 76.45448 14779 ft 398 kts 94°
2026-05-07 23:49 43.58875 76.49240 14301 ft 396 kts 94°
2026-05-07 23:50 43.58676 76.52966 13803 ft 394 kts 94°
2026-05-07 23:50 43.58474 76.56730 13266 ft 392 kts 94°
2026-05-07 23:50 43.58273 76.60466 12756 ft 389 kts 94°
2026-05-07 23:50 43.58071 76.64177 12268 ft 386 kts 94°
2026-05-07 23:51 43.57870 76.67856 11771 ft 383 kts 94°
2026-05-07 23:51 43.57669 76.71510 11265 ft 381 kts 94°
2026-05-07 23:51 43.57469 76.75126 10962 ft 372 kts 94°
2026-05-07 23:51 43.57274 76.78619 10860 ft 359 kts 94°
2026-05-07 23:52 43.57086 76.81986 10729 ft 347 kts 94°
2026-05-07 23:52 43.56902 76.85247 10594 ft 336 kts 94°
2026-05-07 23:52 43.56724 76.88409 10472 ft 326 kts 95°
2026-05-07 23:52 43.56550 76.91482 10344 ft 317 kts 95°
2026-05-07 23:53 43.56379 76.94482 10167 ft 311 kts 95°
2026-05-07 23:53 43.56209 76.97436 9917 ft 308 kts 95°
2026-05-07 23:53 43.56041 77.00364 9624 ft 306 kts 95°
2026-05-07 23:53 43.55872 77.03277 9310 ft 304 kts 95°
2026-05-07 23:54 43.55704 77.06173 9001 ft 302 kts 95°
2026-05-07 23:54 43.55536 77.09052 8692 ft 300 kts 95°
2026-05-07 23:54 43.55368 77.11915 8378 ft 299 kts 95°
2026-05-07 23:54 43.55201 77.14768 8071 ft 297 kts 95°
2026-05-07 23:55 43.55033 77.17600 7772 ft 296 kts 95°
2026-05-07 23:55 43.54898 77.20419 7452 ft 294 kts 90°
2026-05-07 23:55 43.54913 77.23236 7133 ft 293 kts 91°
2026-05-07 23:55 43.54860 77.26015 6919 ft 287 kts 92°
2026-05-07 23:56 43.54781 77.28755 6619 ft 285 kts 94°
2026-05-07 23:56 43.54174 77.31313 6238 ft 283 kts 126°
2026-05-07 23:56 43.52692 77.33002 5917 ft 278 kts 159°
2026-05-07 23:56 43.50837 77.33310 5576 ft 274 kts 191°
2026-05-07 23:57 43.49164 77.32163 5256 ft 271 kts 224°
2026-05-07 23:57 43.48172 77.29981 4918 ft 270 kts 247°
2026-05-07 23:57 43.47411 77.27623 4564 ft 269 kts 243°
2026-05-07 23:57 43.46480 77.25388 4249 ft 268 kts 236°
2026-05-07 23:58 43.45429 77.23322 4105 ft 257 kts 232°
2026-05-07 23:58 43.44276 77.21562 3947 ft 238 kts 226°
2026-05-07 23:58 43.43313 77.19830 3843 ft 218 kts 238°
2026-05-07 23:58 43.42504 77.18164 3754 ft 200 kts 235°
2026-05-07 23:59 43.41765 77.16675 3695 ft 177 kts 236°
2026-05-07 23:59 43.41115 77.15373 3592 ft 154 kts 234°
2026-05-07 23:59 43.40536 77.14233 3463 ft 140 kts 235°
2026-05-07 23:59 43.39987 77.13139 3298 ft 140 kts 236°
2026-05-08 00:00 43.39436 77.12023 3108 ft 143 kts 235°
2026-05-08 00:00 43.38874 77.10885 2914 ft 145 kts 235°
2026-05-08 00:00 43.38310 77.09743 2729 ft 143 kts 235°
2026-05-08 00:00 43.37753 77.08612 2520 ft 142 kts 235°
2026-05-08 00:01 43.37201 77.07496 2349 ft 141 kts 235°
2026-05-08 00:01 43.36657 77.06395 2233 ft 133 kts 236°
2026-05-08 00:01 43.36232 77.05538 2231 ft 83 kts 236°
2026-05-08 00:01 43.36004 77.05099 2224 ft 25 kts 218°
2026-05-08 00:02 43.35989 77.05091 2226 ft 1 kts 191°
2026-05-08 00:02 43.35960 77.05103 2227 ft 6 kts 159°
2026-05-08 00:02 43.35926 77.05125 2227 ft 5 kts 149°
2026-05-08 00:02 43.35898 77.05150 2222 ft 7 kts 146°
2026-05-08 00:03 43.35817 77.05134 2230 ft 18 kts 221°
2026-05-08 00:03 43.35690 77.04902 2226 ft 40 kts 235°
2026-05-08 00:03 43.35536 77.04593 2231 ft 38 kts 236°
2026-05-08 00:03 43.35387 77.04294 2233 ft 37 kts 236°
2026-05-08 00:04 43.35242 77.04002 2221 ft 36 kts 236°
2026-05-08 00:04 43.35104 77.03720 2230 ft 35 kts 236°
2026-05-08 00:04 43.34972 77.03454 2226 ft 34 kts 236°
2026-05-08 00:04 43.34843 77.03182 2228 ft 33 kts 241°
2026-05-08 00:05 43.34782 77.02889 2228 ft 32 kts 265°
2026-05-08 00:05 43.34772 77.02587 2225 ft 31 kts 266°
2026-05-08 00:05 43.34783 77.02300 2231 ft 30 kts 274°
2026-05-08 00:05 43.34796 77.02018 2233 ft 29 kts 274°
2026-05-08 00:06 43.34809 77.01740 2227 ft 29 kts 274°
2026-05-08 00:06 43.34844 77.01513 2225 ft 7 kts 316°
2026-05-08 00:06 43.34854 77.01507 2227 ft 9 kts 329°
2026-05-08 00:06 43.34955 77.01453 2226 ft 18 kts 335°
2026-05-08 00:07 43.35060 77.01371 2233 ft 16 kts 303°
2026-05-08 00:07 43.35056 77.01335 2226 ft 8 kts 250°
2026-05-08 00:07 43.35034 77.01257 2227 ft 0 kts 247°
2026-05-08 00:07 43.35033 77.01256 2227 ft 0 kts 247°